Wind_Speed
32 31 31 33 34 32 31 32 33 34 34 34 34 33 33 32 32 34 38 36 36 37 34 35 38 34 28 28 29 30 33 36 34 35 37 35 33 30 27 27 26 24 25 27 28 27 27 27 28 28 27 26 26 26 26 27 27 27 26 26 26 27 27 27 27 28 29 30 30 28 28 28 28 28 28 28 28 28 27 27 26 26 26 26 26 25
33 32 32 35 34 32 32 33 34 35 35 35 35 34 34 33 33 36 38 37 38 39 36 37 40 35 29 28 30 31 33 33 34 37 40 38 35 31 29 29 27 26 28 29 29 29 28 27 28 28 28 28 28 28 28 28 29 29 28 28 29 29 29 28 28 29 30 31 31 30 30 30 30 30 29 29 29 28 28 28 27 27 26 26 26 26
34 33 35 35 33 32 33 34 35 36 36 36 36 35 34 34 35 36 38 38 40 41 39 39 41 36 29 30 31 31 32 31 33 38 41 40 35 31 31 29 27 28 30 30 30 30 29 28 28 29 29 29 29 29 29 30 30 30 29 30 30 30 29 29 29 30 31 31 31 31 31 31 30 30 30 29 29 28 28 28 27 26 26 25 25 25
35 34 35 34 33 33 33 34 35 35 36 35 35 35 34 35 37 37 38 40 41 43 42 41 42 35 30 31 32 32 32 30 33 37 39 38 32 30 32 30 28 30 31 31 31 31 30 29 29 29 29 30 30 30 30 31 30 30 30 31 31 30 30 30 30 31 31 31 30 30 31 30 30 29 29 29 28 28 28 27 27 26 25 24 24 24
33 34 34 33 33 33 33 34 35 35 35 35 35 35 34 36 38 39 39 41 42 43 43 42 42 35 29 32 31 31 32 31 34 37 37 35 30 30 33 31 29 30 30 31 32 32 31 30 30 29 29 29 29 30 30 30 30 30 31 31 31 31 31 31 31 31 31 30 30 30 30 29 29 28 28 28 28 27 27 27 26 25 24 23 23 22
30 32 32 32 32 33 33 33 34 35 34 35 35 36 37 37 39 41 41 42 42 42 40 40 42 34 28 29 28 28 30 29 32 35 34 31 30 31 33 31 31 31 31 32 33 33 32 31 30 29 29 29 28 29 29 29 30 31 32 32 32 32 32 32 31 31 30 30 30 29 29 28 27 27 27 27 27 26 26 26 26 25 23 22 22 21
28 29 30 31 32 32 33 32 34 35 35 35 35 37 38 38 39 41 41 42 41 40 36 36 41 36 25 23 23 26 27 26 28 30 29 29 29 31 32 32 32 32 32 32 33 34 33 32 31 31 31 30 30 30 30 30 31 32 32 32 33 32 32 32 32 31 30 29 29 28 27 27 26 26 26 26 25 26 26 26 25 24 23 22 21 21
27 29 30 31 32 32 33 33 35 36 36 35 34 36 37 37 37 38 39 39 38 38 34 31 37 38 27 18 19 24 25 24 25 25 25 28 29 31 32 32 32 32 33 33 34 34 33 32 32 33 32 32 31 31 31 31 31 32 33 33 33 33 32 32 31 30 28 27 27 27 26 25 25 25 25 24 24 25 25 24 23 22 22 21 21 20
27 29 29 30 31 32 32 33 35 35 35 33 32 33 33 34 34 34 35 35 36 36 31 29 34 38 30 18 18 23 24 22 23 23 25 27 29 31 32 33 34 33 34 34 35 35 34 34 34 34 33 32 32 31 31 32 32 33 33 33 33 32 31 31 29 27 26 26 26 25 25 24 24 24 23 23 23 23 23 23 22 21 20 20 20 19
28 29 30 30 30 31 31 33 34 34 34 31 30 30 30 31 31 31 33 32 34 34 28 27 31 35 31 19 16 22 24 25 26 26 27 28 30 32 33 34 34 34 35 35 36 35 35 35 34 34 33 33 32 32 32 32 33 33 33 33 32 31 30 29 27 26 26 26 25 25 24 23 23 22 22 22 22 22 22 22 21 20 19 19 19 19
28 29 30 29 30 31 32 33 34 34 32 29 29 28 28 30 30 31 31 30 33 32 27 27 29 32 28 15 12 19 22 26 28 28 29 30 31 33 33 34 34 34 36 36 36 35 35 35 35 35 34 33 32 32 33 33 33 34 33 32 31 30 29 27 26 26 25 25 24 24 23 22 22 21 21 22 22 22 22 21 20 19 19 18 19 19
28 29 29 29 29 30 30 31 31 30 29 28 28 28 28 30 30 31 30 29 32 30 27 28 28 30 25 11 11 20 23 27 30 30 32 33 32 34 35 35 35 35 36 36 36 36 36 36 36 35 34 33 33 32 33 33 33 32 31 30 29 29 28 27 26 25 25 24 24 24 22 22 21 20 21 22 23 22 21 21 20 19 19 19 19 19
27 27 27 26 26 27 27 27 27 27 27 28 27 28 28 29 30 31 29 29 31 29 28 29 29 31 24 11 14 23 26 30 33 34 36 35 35 35 36 36 36 36 36 36 37 37 37 36 36 35 33 32 32 32 32 31 30 29 29 28 28 28 27 26 25 25 25 24 24 23 22 21 21 21 22 23 23 22 21 20 20 19 19 19 19 19
24 24 23 23 23 24 24 24 24 25 26 27 27 27 28 28 30 31 30 30 31 30 29 29 30 31 23 14 17 23 28 32 35 37 38 37 36 36 36 37 37 37 37 37 37 37 37 36 35 33 32 31 31 30 29 28 28 28 28 28 27 27 26 26 26 25 25 24 24 24 23 22 22 23 23 23 23 22 20 20 19 19 19 19 19 20
20 20 21 21 21 22 23 23 24 25 27 27 28 28 27 28 31 32 32 32 32 31 31 30 31 29 22 17 18 22 27 33 37 39 39 38 37 36 38 39 38 37 37 37 37 37 36 35 33 32 31 30 29 28 27 27 27 27 27 27 26 26 27 26 26 26 25 25 26 25 24 24 24 25 25 25 24 22 21 20 20 20 20 21 21 22
19 19 20 21 21 22 23 23 24 25 27 27 27 27 26 28 31 32 32 32 33 33 32 30 29 28 23 19 19 22 27 32 37 38 37 37 37 37 38 39 39 38 37 36 36 35 35 33 32 31 30 28 27 27 27 27 27 27 27 27 27 27 27 27 27 27 27 28 28 27 26 26 26 26 26 26 26 24 22 21 21 22 23 23 24 24
17 17 18 19 21 22 22 22 23 24 25 24 24 25 26 28 30 31 32 32 34 35 32 29 28 26 24 18 18 23 27 31 35 35 35 36 36 36 37 37 38 38 37 36 35 35 34 33 32 30 28 27 27 27 27 27 27 28 28 28 28 28 28 28 28 28 29 29 29 29 28 28 27 28 28 28 28 27 25 24 24 25 25 26 27 27
17 17 17 19 20 21 22 22 23 23 24 24 24 26 28 29 30 31 33 33 34 36 34 31 29 27 23 18 17 23 29 33 34 33 34 35 35 35 36 36 36 37 36 36 35 35 34 34 32 29 28 27 27 28 28 28 28 29 30 30 29 29 29 30 30 30 30 30 30 30 30 30 29 29 30 30 30 30 29 28 28 28 29 29 29 29
19 18 18 20 21 21 23 23 23 24 25 25 26 27 29 30 31 32 34 34 35 37 36 34 30 25 21 19 19 24 29 33 33 33 34 34 35 35 34 35 36 36 36 36 36 35 34 33 31 28 27 26 27 28 29 30 31 31 32 31 31 31 32 32 32 31 32 32 32 32 31 31 30 30 31 31 31 31 30 31 31 31 32 32 32 32
20 20 19 20 22 22 23 24 24 25 26 27 27 28 29 31 33 33 34 35 36 38 39 37 31 23 20 21 23 25 29 31 31 31 32 33 34 34 34 34 35 35 36 36 36 36 35 33 31 29 28 28 28 29 30 32 33 34 34 35 35 35 35 34 34 33 33 33 33 33 32 31 31 31 32 32 32 31 31 32 32 33 34 34 35 35
22 22 21 21 22 23 23 25 26 26 27 28 28 29 30 32 34 35 36 36 37 40 41 39 34 24 18 19 24 24 25 27 28 27 27 29 31 32 33 34 34 35 37 37 37 38 37 37 35 33 31 32 32 33 34 34 35 36 37 38 39 39 38 37 36 36 35 35 34 33 32 32 33 33 33 33 32 32 32 33 34 34 36 36 36 37
24 24 24 22 22 24 25 27 27 28 29 29 30 31 32 34 36 38 39 38 39 41 40 41 39 22 9 12 18 20 21 21 24 24 24 26 29 32 34 36 37 38 38 39 40 40 40 40 39 36 35 35 35 36 37 37 37 38 38 39 40 41 41 39 38 37 36 36 35 33 33 34 34 34 34 34 33 33 34 35 36 37 38 38 39 40
28 29 27 25 26 27 28 29 30 30 31 32 32 32 33 36 37 39 41 39 40 41 38 41 35 9 1 15 20 20 20 20 22 25 26 28 30 33 36 38 40 41 40 41 42 43 43 42 41 39 38 38 39 39 40 40 39 38 38 38 38 40 42 41 39 38 37 36 35 35 34 35 35 36 36 35 35 35 36 37 38 39 40 40 41 41
31 31 30 28 28 29 29 29 30 30 32 32 32 32 34 35 36 39 41 39 42 40 34 40 32 8 5 23 26 23 23 22 25 29 31 33 34 36 39 41 42 43 43 45 46 46 46 45 44 44 43 43 43 42 42 41 40 38 37 37 36 38 41 40 38 38 38 36 36 36 36 35 36 37 36 37 37 38 39 40 41 41 42 42 43 43
32 32 30 29 28 28 28 27 28 29 31 32 32 32 34 35 36 39 39 40 42 36 31 40 41 22 14 22 26 27 28 27 30 34 37 40 40 40 42 42 43 45 46 48 48 48 48 46 45 45 44 44 44 43 42 41 40 39 37 37 36 37 39 38 36 36 36 36 36 36 36 36 37 37 38 38 39 40 41 42 43 43 44 44 45 45
32 32 29 28 28 28 26 26 28 30 32 33 32 32 34 35 36 38 40 41 40 35 34 41 43 34 26 25 27 29 31 34 36 38 41 43 43 42 41 42 44 45 46 47 46 46 45 44 42 41 41 40 40 39 39 38 38 38 37 37 37 37 38 37 36 35 35 34 35 36 37 38 39 39 40 41 42 42 44 45 45 46 46 47 47 48
33 31 29 29 30 28 25 27 30 31 32 33 33 33 35 36 37 39 41 40 37 39 43 42 40 41 37 32 30 28 29 35 39 40 41 41 41 39 39 41 42 42 42 42 41 41 41 40 39 38 38 37 37 36 35 35 36 36 36 37 37 38 38 38 37 36 35 35 35 36 37 38 40 41 42 43 44 45 46 47 48 48 49 50 50 51
34 32 30 31 32 29 28 30 32 33 34 35 35 35 35 37 39 40 40 39 39 45 49 42 40 47 45 36 30 24 26 33 37 37 37 36 36 36 36 37 37 36 37 37 37 38 39 39 38 38 38 37 36 35 34 34 35 35 35 35 37 38 38 38 38 37 36 36 36 37 38 40 41 42 43 44 46 47 48 49 50 51 52 53 53 54
37 34 31 33 34 32 31 33 35 37 38 38 38 37 38 39 40 41 41 41 43 49 51 45 44 50 45 31 22 21 26 31 32 32 33 33 33 34 34 33 33 33 34 35 36 38 38 38 37 37 37 37 36 35 34 34 35 35 35 34 36 37 38 38 38 37 37 37 37 39 40 42 43 44 45 47 48 49 50 52 53 54 55 55 56 57
39 37 33 36 37 35 33 35 38 41 42 43 42 42 41 41 41 43 45 45 47 51 50 46 47 45 31 21 19 23 26 29 30 31 32 33 33 34 34 33 33 33 33 34 36 37 38 38 37 37 37 36 36 36 35 36 36 35 34 34 35 37 38 38 38 37 38 39 40 42 43 44 46 47 49 50 51 52 53 54 56 57 57 58 58 59
42 41 38 40 43 40 37 39 43 45 47 50 50 47 43 42 44 47 47 45 46 46 43 41 44 36 21 19 27 27 26 30 34 35 35 34 34 35 34 35 35 34 33 34 35 36 37 38 38 37 37 37 37 37 38 38 38 36 35 36 37 38 38 39 38 39 40 42 43 45 45 47 48 50 51 52 53 55 56 57 58 59 60 60 61 62
45 46 43 44 49 47 40 42 47 48 52 57 53 45 40 41 44 44 42 40 39 39 39 39 40 33 25 24 29 30 32 35 36 36 37 36 37 37 36 37 37 37 36 36 37 39 40 40 40 40 39 39 39 39 39 39 38 38 38 38 39 40 41 42 42 42 43 45 46 47 48 50 51 52 53 54 56 57 57 58 59 60 61 62 63 63
46 48 46 47 52 49 43 44 47 49 55 55 44 36 35 37 38 37 36 35 35 36 39 39 37 35 33 30 31 33 37 38 37 37 38 39 39 39 39 40 40 38 38 40 41 42 43 43 43 42 42 42 41 41 41 41 41 41 42 42 43 44 45 45 45 46 46 47 48 48 50 51 52 54 55 55 56 57 58 59 60 61 62 63 63 64
47 48 48 49 52 52 47 44 46 51 53 45 35 34 36 34 34 35 36 35 34 35 38 39 38 37 36 36 37 38 38 37 38 39 40 41 41 42 43 43 42 42 43 44 44 45 45 45 45 44 43 43 43 43 43 44 45 46 47 47 48 48 49 49 49 49 49 50 50 50 52 53 54 55 56 56 57 58 58 60 61 62 63 63 64 65
48 48 49 51 53 54 51 49 50 52 47 42 40 39 34 31 32 36 38 36 34 34 37 39 38 37 37 39 40 39 39 39 40 39 40 41 43 44 47 47 46 46 46 46 46 46 46 45 45 45 44 45 45 46 47 48 50 51 52 52 53 53 54 54 54 54 54 54 55 55 56 57 57 58 58 59 59 60 61 62 62 63 64 65 66 67
49 50 51 52 53 55 55 54 54 51 47 47 47 42 34 32 34 37 39 36 33 33 35 37 39 39 40 40 40 40 42 43 42 41 41 43 46 49 51 50 49 49 48 47 46 46 46 46 46 47 48 49 50 51 52 53 54 55 55 56 56 57 57 58 58 58 58 58 59 60 61 61 61 61 61 62 62 63 64 65 66 67 68 69 70 71
51 51 52 53 54 55 57 57 56 55 53 49 46 43 41 39 39 40 41 37 34 33 33 38 44 44 42 40 40 42 44 44 44 42 42 45 49 51 52 52 51 50 49 49 48 49 49 50 51 51 52 53 54 54 54 55 55 56 57 57 58 59 60 60 61 61 62 63 64 64 65 65 65 65 66 66 67 68 69 70 71 72 72 73 74 75
52 52 52 55 56 57 59 59 58 59 56 50 46 45 45 45 45 46 46 42 38 36 36 40 45 43 40 40 41 42 43 44 43 42 43 47 50 52 52 52 52 52 52 52 52 52 54 54 55 56 56 56 56 56 56 56 57 58 59 59 60 61 62 63 64 65 66 67 69 70 70 70 70 70 71 71 72 72 73 73 74 75 76 76 77 78
54 55 55 57 59 60 60 61 61 61 58 55 53 51 50 50 49 50 51 46 38 38 40 42 40 39 40 41 41 41 43 44 44 44 46 49 51 52 53 52 53 55 56 56 57 57 58 58 59 60 60 60 59 59 58 58 59 61 62 63 64 65 66 67 67 69 70 71 73 73 73 73 73 74 74 74 74 75 75 76 76 77 78 78 79 80
57 58 59 60 61 61 62 63 63 62 59 58 58 56 57 57 55 55 55 49 43 44 46 44 42 43 44 43 43 44 46 47 48 48 51 53 54 55 55 56 57 58 59 61 62 62 62 62 62 63 64 64 63 63 62 63 64 66 67 68 69 69 70 70 71 72 73 73 74 75 75 75 75 75 75 75 76 76 77 77 78 79 79 80 81 81
59 60 61 62 62 64 65 65 65 63 60 59 59 59 60 60 60 61 58 53 51 52 51 49 49 50 50 51 51 51 52 53 53 54 56 57 58 58 59 59 59 60 62 63 64 64 64 65 65 65 66 68 68 68 68 69 69 70 71 71 72 72 72 72 73 74 74 75 75 76 76 76 77 77 78 78 78 78 78 79 80 81 81 81 82 82
61 61 62 63 64 65 65 65 66 64 60 58 57 57 60 62 62 62 59 57 58 59 58 58 58 58 59 60 59 58 57 57 56 57 58 58 58 58 59 59 59 60 62 63 64 65 66 66 67 68 69 71 72 73 73 73 73 73 73 73 73 74 74 75 75 76 76 76 76 76 77 77 78 79 80 80 79 79 79 80 82 82 83 83 83 82
63 64 65 65 65 65 65 67 68 64 59 58 59 60 62 64 63 62 62 63 64 64 65 65 64 63 64 64 64 63 62 60 60 60 59 59 59 60 60 61 63 64 65 66 67 68 69 70 70 71 72 73 74 75 75 75 75 75 75 75 75 76 77 77 77 77 77 77 77 77 77 77 78 79 80 80 80 81 82 83 83 84 84 83 82 82
68 68 68 66 65 66 68 69 68 64 63 66 67 66 66 66 65 66 67 68 68 67 67 67 66 67 68 68 67 67 67 66 66 65 64 64 64 65 65 66 67 69 70 71 71 72 72 73 73 73 74 75 75 76 76 76 77 77 77 77 77 78 78 78 78 77 78 77 77 77 78 78 79 80 81 81 82 83 84 84 83 83 83 82 82 82
70 69 69 68 69 71 72 72 70 69 71 73 71 70 71 71 70 71 71 69 68 68 69 69 70 70 71 72 71 70 70 70 70 70 70 70 69 70 71 71 72 73 74 74 74 75 75 75 75 76 76 76 77 77 77 78 78 79 79 79 79 79 78 78 77 77 77 78 79 79 80 81 81 82 83 84 84 84 84 83 82 82 81 81 82 82
72 71 73 74 75 76 75 73 73 74 75 75 74 74 74 74 72 72 72 71 71 72 72 73 74 73 74 74 74 73 73 73 73 73 74 74 74 75 76 76 77 77 76 76 77 77 78 78 78 78 78 79 79 79 79 80 80 81 81 81 80 80 79 78 77 77 78 79 80 81 82 83 83 84 84 84 84 83 83 82 82 82 82 83 84 84
73 75 77 77 78 80 78 74 74 77 76 76 77 75 74 75 74 74 74 74 74 75 76 76 76 76 76 76 76 76 76 76 77 78 78 78 79 80 80 80 80 80 80 80 81 81 82 82 81 80 80 80 80 81 81 82 82 82 82 82 81 80 79 78 78 79 80 81 81 82 83 83 83 84 84 84 83 83 84 84 84 84 85 85 86 86
74 76 78 77 78 83 82 76 76 79 79 77 78 77 75 76 76 76 77 77 77 77 77 77 77 78 78 79 80 81 80 80 81 82 82 83 83 83 83 83 83 83 83 84 84 84 83 82 81 80 80 81 81 82 83 83 83 83 83 82 81 80 80 80 81 81 82 82 82 82 82 83 83 83 84 84 84 84 85 85 86 86 87 87 88 88
77 79 79 79 81 84 84 81 80 82 80 78 78 79 78 77 78 78 78 78 78 79 79 79 80 81 82 83 84 85 84 84 84 86 86 86 86 86 86 86 86 85 85 84 83 81 80 79 80 81 82 83 83 83 84 84 84 84 83 83 82 82 82 82 82 82 83 82 82 83 83 83 84 84 85 85 85 86 86 87 87 88 89 89 89 90
79 80 78 82 84 84 84 84 84 84 82 79 78 80 80 79 79 80 80 80 81 81 82 83 84 85 87 88 88 88 89 88 88 89 89 88 88 89 88 88 87 85 82 80 79 79 79 81 83 84 85 85 84 84 84 84 84 84 84 83 83 83 83 83 83 83 83 83 83 84 85 85 85 86 86 86 87 87 87 88 89 90 91 91 91 92
77 78 78 83 87 86 85 86 86 85 83 81 81 84 83 82 82 83 83 83 84 85 86 87 88 88 89 89 89 89 89 88 88 88 88 88 87 87 86 85 83 80 79 79 80 82 84 85 86 86 86 85 85 85 85 84 84 84 84 84 85 85 85 85 85 85 85 86 86 87 87 87 88 88 88 88 89 90 91 91 92 92 93 93 93 94
Wind_Direction
217 219 222 226 228 229 230 232 235 237 240 242 244 246 247 248 249 251 253 254 255 256 257 259 260 258 253 253 257 260 261 264 266 265 262 259 257 260 266 271 276 283 290 294 297 298 298 295 290 286 284 283 283 285 287 288 288 288 289 289 287 287 288 288 288 288 289 288 289 290 290 291 291 292 294 294 295 295 294 294 293 292 291 290 289 288
222 223 226 230 230 231 234 236 239 243 246 248 249 249 250 252 251 253 256 258 259 260 259 260 261 261 259 255 254 259 263 265 265 262 261 258 255 258 264 269 276 284 290 294 296 298 298 295 290 287 284 283 283 284 287 288 288 288 289 287 285 287 289 289 289 288 287 288 289 290 290 291 292 292 293 294 294 293 292 291 291 290 290 289 287 286
225 225 227 231 233 235 239 242 246 249 251 251 251 251 251 254 254 255 259 262 262 263 263 262 263 262 261 258 256 259 264 268 268 264 262 259 254 255 262 269 277 283 289 292 295 297 297 294 291 288 285 284 283 284 286 287 286 287 287 286 287 288 289 289 288 286 287 288 290 290 290 291 292 292 293 294 293 292 291 291 290 288 287 287 286 285
228 227 230 233 236 240 243 247 251 252 252 252 252 254 254 256 258 258 260 263 265 266 266 264 264 263 260 259 258 261 265 269 271 267 264 260 253 252 261 269 276 282 288 292 294 297 296 294 292 290 288 285 285 285 285 285 286 286 286 286 287 288 288 287 286 286 288 290 290 290 290 291 292 293 294 293 292 292 291 290 288 287 286 286 285 285
231 231 233 237 240 243 247 249 252 251 251 252 254 256 258 259 261 262 261 263 266 268 269 269 268 266 261 259 258 262 268 269 269 267 265 262 252 250 261 270 275 281 287 291 293 295 295 295 294 292 290 288 286 285 285 285 285 285 285 286 286 286 286 286 286 288 289 290 290 290 291 291 292 293 293 292 292 292 290 287 286 286 286 286 285 284
235 236 238 242 244 246 247 249 251 251 251 254 258 260 261 261 263 264 264 264 266 268 271 273 274 272 265 261 260 262 268 268 266 264 264 261 252 251 262 271 276 280 284 288 292 294 294 294 294 293 292 289 287 285 285 284 284 284 285 285 285 286 286 287 288 288 289 290 290 290 290 292 293 293 292 292 293 290 288 287 287 287 286 285 284 283
238 240 242 244 245 246 248 248 249 252 254 257 261 263 263 263 263 265 266 266 267 267 269 273 277 277 267 259 262 266 267 265 263 263 262 259 253 256 265 271 275 280 284 288 292 293 293 293 294 293 292 291 288 286 285 284 284 284 285 285 286 286 287 288 288 289 290 290 289 289 291 293 294 293 293 294 292 290 289 289 288 287 287 284 282 281
240 242 244 246 247 249 249 250 251 254 256 258 260 263 264 263 263 263 265 266 267 267 269 271 275 277 269 256 261 264 262 261 263 264 262 259 259 262 268 272 276 281 285 289 290 291 291 292 292 292 292 291 289 287 286 286 285 285 286 286 286 287 288 288 289 289 290 289 289 291 294 294 293 293 294 293 292 291 291 290 289 287 286 284 282 281
244 246 248 249 251 252 252 253 254 256 258 258 259 260 262 262 263 263 264 265 267 267 269 269 271 274 270 265 266 256 249 254 260 262 260 260 262 265 269 273 276 281 284 287 288 289 290 291 291 291 291 290 289 288 288 287 286 286 286 287 287 288 288 288 289 289 289 289 291 294 294 293 293 293 292 291 291 291 291 290 288 288 286 284 283 281
246 248 249 250 252 253 254 255 256 257 257 258 257 257 259 262 263 264 264 266 267 268 268 267 269 273 273 275 271 256 248 250 254 258 261 261 262 265 268 272 276 280 283 285 287 288 289 289 290 290 290 290 289 289 288 287 287 287 286 287 287 288 287 288 289 290 290 291 293 293 292 292 292 291 289 289 290 290 290 289 288 287 286 283 281 280
248 249 250 252 253 254 255 255 255 256 257 257 258 258 260 262 264 265 266 267 268 269 270 269 270 275 278 278 264 260 258 256 256 258 261 263 266 269 272 274 277 280 282 284 285 286 287 288 288 289 289 289 289 288 288 287 287 286 286 287 287 287 287 288 290 290 290 291 292 290 290 290 289 287 286 287 288 289 289 287 286 285 283 281 279 278
249 251 253 254 255 255 254 254 255 255 257 259 260 262 263 265 267 267 268 269 270 272 272 272 272 274 277 270 252 266 267 260 260 261 262 266 270 275 278 278 279 280 282 283 284 285 285 286 287 287 288 288 288 287 287 286 286 286 286 287 286 285 286 288 289 289 289 290 288 287 288 288 285 284 283 284 286 287 286 284 282 281 279 278 277 278
248 251 253 254 255 254 253 254 255 257 259 262 264 267 268 269 271 271 271 271 272 275 274 274 275 274 277 267 251 266 271 266 264 264 265 269 273 277 280 280 281 281 282 283 282 283 283 284 285 285 286 286 285 285 284 285 285 286 285 284 284 285 287 288 289 288 288 287 286 286 286 284 282 281 281 282 284 284 282 281 279 277 277 277 277 277
249 251 252 253 253 254 255 255 257 260 262 265 268 269 271 274 276 276 276 275 276 277 276 276 276 276 281 274 256 262 268 270 270 269 270 273 277 280 281 281 282 282 282 282 281 282 283 284 285 285 285 284 283 284 284 285 285 284 283 283 284 287 288 289 289 288 287 286 285 284 284 282 279 278 278 279 280 280 278 276 276 276 277 277 277 277
248 249 250 251 250 253 256 257 259 261 263 265 267 269 272 276 277 278 278 278 279 278 276 277 277 278 280 275 267 265 264 267 271 272 275 278 281 282 282 282 282 281 281 281 282 283 283 283 284 285 285 284 285 285 285 284 282 282 283 285 287 288 288 288 289 288 287 285 285 284 283 279 277 276 276 277 277 276 275 273 275 276 277 277 277 278
247 248 251 253 253 254 255 258 260 262 264 266 267 271 274 274 275 277 278 279 279 278 277 277 278 280 281 278 277 272 266 266 268 271 275 278 279 279 279 280 280 281 282 282 283 283 283 283 283 283 284 284 284 283 282 281 282 283 285 286 287 286 288 289 288 287 286 286 285 284 281 277 275 274 274 274 275 274 273 272 273 274 276 276 277 277
251 253 255 257 257 256 257 259 260 263 266 267 270 273 273 273 274 277 279 280 280 280 280 280 279 281 283 285 285 277 270 268 268 271 274 275 276 276 277 279 280 281 281 281 281 281 281 281 280 281 282 282 281 279 279 281 282 284 284 284 284 285 287 287 286 286 286 286 285 282 280 276 273 273 273 274 274 274 273 274 274 275 276 276 276 277
255 253 253 255 256 258 260 261 262 267 269 271 273 273 273 275 277 280 281 282 283 285 284 283 283 283 285 289 287 279 275 272 271 273 274 274 276 277 278 279 279 280 280 279 279 277 277 277 278 280 280 279 280 280 281 281 281 282 283 283 284 285 285 284 284 284 284 283 281 279 277 274 272 273 274 274 273 273 274 275 276 277 278 278 278 277
259 256 254 256 258 260 263 265 267 270 271 272 273 274 277 279 280 281 283 284 286 287 286 285 283 283 289 294 286 276 272 272 274 276 277 278 279 280 281 281 281 280 280 280 279 278 277 278 279 279 278 278 279 281 282 282 282 282 283 284 284 284 284 283 283 282 281 279 278 276 275 274 273 273 272 272 273 273 275 275 275 276 276 277 277 277
262 261 259 259 261 263 265 267 269 270 271 273 274 277 279 280 281 282 282 285 287 286 287 285 280 286 301 291 275 268 268 271 274 277 281 284 284 285 284 283 282 282 281 280 281 282 283 283 282 281 281 282 283 283 283 284 284 285 286 286 285 284 284 284 283 281 279 277 276 275 275 274 272 271 271 272 273 274 275 274 274 274 274 274 274 274
264 265 263 262 264 267 268 269 270 272 274 276 277 279 280 281 283 282 283 285 285 285 286 284 285 300 309 278 262 264 269 275 279 281 285 287 286 286 285 283 282 282 283 284 285 286 286 286 286 287 288 288 288 287 286 286 286 287 288 288 287 287 286 285 283 281 278 276 275 274 274 273 272 272 272 273 274 274 274 273 273 272 271 271 272 272
268 267 266 266 269 270 271 272 274 275 276 278 278 279 281 281 281 282 282 282 282 283 285 286 292 302 297 269 276 281 280 285 289 289 289 287 285 284 283 283 282 281 283 284 284 285 285 286 288 289 289 287 286 285 285 285 285 286 287 287 287 287 287 286 284 281 278 276 275 274 272 271 272 272 273 273 273 273 272 271 271 270 270 272 272 274
272 271 271 272 272 271 272 274 275 277 278 278 279 279 279 279 279 280 281 280 281 282 283 289 293 291 259 296 300 298 294 294 293 289 286 282 280 281 281 280 280 281 282 283 283 284 284 286 288 288 287 285 284 283 283 283 284 284 285 285 285 285 285 285 284 281 279 277 276 275 272 271 271 272 272 273 273 272 271 271 271 272 273 274 275 277
273 274 274 273 273 274 274 275 277 279 278 277 277 277 276 277 278 278 280 280 281 281 288 292 284 253 304 299 293 296 298 294 291 287 282 278 276 275 276 277 279 281 282 282 282 283 284 287 288 289 289 288 287 286 286 285 285 285 284 283 282 281 281 283 283 281 279 277 276 275 274 273 273 273 274 274 274 273 273 273 273 274 276 276 277 278
273 274 275 276 276 275 275 278 278 277 276 275 276 276 277 278 277 278 281 281 282 287 296 289 279 278 302 291 284 293 297 292 289 284 279 277 275 274 275 278 280 280 280 281 282 284 286 288 289 290 290 290 290 290 290 289 289 288 286 285 282 280 280 281 281 279 277 276 275 274 275 275 274 274 275 275 274 274 274 274 275 276 277 278 278 278
273 274 277 278 277 276 278 278 275 273 274 275 277 278 277 278 278 280 280 281 288 296 291 282 284 294 300 289 287 295 295 290 286 280 277 277 277 279 280 280 279 279 281 283 286 287 289 289 290 291 291 292 292 293 293 293 292 292 291 289 287 285 285 284 283 281 279 277 275 275 275 275 275 275 274 274 274 274 274 275 276 277 277 277 277 277
274 276 279 278 278 280 280 276 274 274 274 275 276 276 275 277 278 278 280 286 295 294 285 285 294 296 291 292 298 297 287 280 277 275 276 278 280 281 280 278 279 282 285 287 288 290 291 292 294 295 295 296 296 296 296 296 296 295 295 294 292 291 290 290 289 288 287 284 281 279 277 276 275 274 274 274 274 274 275 276 276 277 277 277 277 278
276 277 279 279 280 281 280 278 277 276 275 275 274 274 275 276 276 278 285 291 293 288 285 293 298 290 289 300 303 288 269 266 270 273 275 276 277 277 276 278 283 286 288 289 290 291 291 293 295 295 295 296 296 296 297 296 296 296 295 294 293 293 293 292 291 291 290 289 287 284 281 279 278 278 277 276 276 276 276 276 276 276 276 276 277 278
276 276 278 279 279 279 279 278 277 277 276 275 275 275 275 275 278 284 287 288 286 285 287 295 294 289 294 305 294 267 259 264 268 270 270 272 274 275 277 282 285 287 289 289 288 287 288 289 290 290 291 291 292 292 292 292 292 292 292 292 292 291 290 290 290 290 290 288 286 283 281 280 280 279 278 277 276 276 276 276 276 276 276 277 278 278
275 276 277 276 276 276 276 276 276 276 276 275 274 274 274 277 281 283 283 284 286 286 289 294 290 289 300 307 280 265 267 271 272 269 269 271 274 277 282 285 286 287 286 284 283 284 285 286 285 285 286 286 286 286 287 287 288 287 287 287 285 284 284 285 287 286 284 283 281 279 278 278 277 276 275 275 275 275 275 276 276 277 277 278 279 279
274 276 276 275 275 273 273 275 276 276 276 274 272 272 276 280 281 281 282 286 287 287 290 290 285 289 305 298 281 278 277 275 274 273 272 274 276 280 283 285 285 284 282 281 281 281 282 283 283 283 282 282 282 284 285 285 285 284 282 279 277 277 278 280 281 279 277 276 274 274 274 274 274 274 274 274 274 275 275 275 276 277 278 278 279 279
273 275 275 276 275 274 275 275 275 276 275 272 271 275 280 280 279 281 284 286 286 288 289 286 286 293 299 288 281 282 280 276 274 274 275 277 278 280 281 282 282 281 281 281 280 280 280 281 281 281 281 281 282 282 283 283 282 280 278 276 275 275 276 276 275 274 273 271 271 272 272 272 272 273 273 273 274 274 275 275 276 277 277 278 278 278
273 274 276 276 276 277 277 275 276 276 272 271 275 282 281 278 280 283 283 284 286 288 288 287 290 295 296 290 282 277 276 277 277 277 278 279 279 281 282 282 281 282 283 282 281 281 281 281 281 281 281 281 281 281 281 280 280 279 279 278 277 276 276 276 275 274 273 272 273 273 273 273 273 273 273 274 274 275 275 276 276 276 277 277 277 277
274 276 277 277 277 279 278 277 276 272 270 276 283 280 275 276 280 281 280 282 284 286 287 288 290 293 294 290 282 277 279 280 279 279 281 282 283 283 282 282 283 284 283 283 283 283 282 282 282 281 281 281 280 281 281 280 280 280 280 280 279 279 278 278 278 278 277 276 276 276 276 276 275 275 275 275 276 276 277 277 277 277 277 277 277 278
275 277 278 278 278 279 279 278 274 271 275 283 282 275 273 276 278 278 278 279 280 282 283 285 288 290 287 283 282 284 286 284 282 283 283 283 283 281 280 281 283 284 284 284 284 284 283 283 283 282 283 283 283 283 283 283 283 282 282 283 282 282 282 282 282 281 281 281 280 279 278 277 277 276 277 277 277 277 277 278 278 278 279 279 280 281
275 275 276 276 277 277 278 277 274 274 279 279 277 278 279 277 276 275 273 273 275 277 280 283 284 283 281 282 286 286 284 284 284 283 282 281 279 279 280 281 282 283 284 284 284 284 283 282 282 282 283 283 284 284 284 284 284 283 283 283 283 283 283 283 283 283 283 282 281 280 280 279 279 279 279 279 280 280 281 281 282 282 282 282 283 283
272 273 274 276 276 276 277 276 275 275 276 275 277 282 284 282 279 276 273 271 272 278 283 281 279 281 284 285 284 281 279 280 280 280 279 278 277 278 279 280 281 281 282 283 283 283 282 282 282 282 282 283 282 282 282 282 282 282 282 282 282 282 282 282 282 283 283 282 282 281 281 281 281 281 281 282 282 282 283 283 283 283 283 283 283 282
271 272 273 274 274 274 275 276 276 277 278 279 280 280 281 281 281 282 281 276 276 286 286 276 275 282 285 282 280 279 278 278 278 279 277 275 275 276 277 278 279 280 280 280 280 281 281 281 281 281 281 281 281 281 281 280 280 280 280 281 281 281 281 281 281 281 281 281 281 281 281 281 281 281 281 281 280 280 280 281 281 281 281 281 281 280
271 271 271 271 272 274 275 276 277 277 279 282 284 283 284 284 284 285 283 281 288 294 285 276 277 280 278 278 280 279 278 277 277 277 276 274 274 275 275 277 278 279 280 280 281 281 281 281 281 281 280 280 280 280 280 280 280 281 281 281 282 282 281 281 280 280 280 279 279 279 279 279 279 278 278 278 278 279 279 280 280 280 281 281 281 281
269 270 270 271 272 274 275 276 276 276 278 282 284 286 287 287 287 286 283 286 293 292 284 282 282 279 277 280 281 279 278 277 275 274 274 274 275 276 277 277 278 279 280 280 281 281 281 281 281 281 281 280 280 279 279 279 279 280 281 281 281 282 282 282 281 281 280 280 280 280 279 278 278 277 277 277 278 279 280 280 281 281 281 282 282 282
268 268 269 270 271 272 272 274 275 277 279 280 281 284 286 287 287 286 287 290 291 288 286 286 284 283 284 285 282 280 278 276 274 274 274 274 275 276 277 277 277 277 277 277 278 278 279 279 279 278 279 279 279 279 279 279 279 279 280 280 281 281 282 282 282 281 281 281 281 280 280 279 278 278 278 278 278 279 280 280 281 281 281 281 281 281
270 270 269 270 270 270 272 274 274 277 279 280 282 284 284 283 282 284 287 289 288 287 289 289 288 289 290 287 284 282 280 278 278 277 276 276 277 276 276 275 275 274 274 275 276 276 276 276 276 276 276 277 277 278 279 279 279 279 280 280 280 281 281 282 282 281 281 280 280 280 280 279 279 279 279 279 279 280 281 281 282 282 282 282 281 281
270 270 268 268 269 271 272 271 271 276 282 284 282 280 278 278 280 283 285 285 285 287 290 290 291 292 289 287 286 285 284 284 283 282 281 280 279 278 277 276 276 276 275 275 275 275 275 275 274 274 275 275 276 277 278 278 279 279 280 280 280 281 281 281 281 280 280 279 279 279 279 279 279 279 279 279 280 281 282 282 283 283 283 283 283 283
267 267 268 270 271 271 270 270 272 277 280 279 277 276 277 279 281 282 282 282 284 287 289 289 289 288 287 287 286 286 287 287 287 286 285 283 282 281 280 280 279 279 278 278 277 276 276 276 276 276 276 276 277 278 278 279 279 280 280 280 280 280 280 280 280 280 279 279 279 280 280 280 280 280 280 281 282 282 283 283 283 283 283 283 283 284
267 269 271 271 270 270 270 272 274 275 275 275 276 278 279 279 280 281 282 283 285 286 286 285 284 284 285 286 286 286 287 286 286 286 286 285 285 285 284 284 283 282 282 281 280 280 279 279 280 280 280 280 280 280 281 281 281 281 281 281 280 280 280 279 279 279 279 280 280 281 281 281 281 281 282 282 283 284 284 284 284 284 284 284 285 285
268 270 270 270 271 271 272 272 273 273 274 276 277 277 278 280 281 283 284 284 284 284 284 284 284 284 285 285 286 286 286 286 286 286 285 286 285 285 285 285 284 283 283 283 283 283 282 282 282 283 283 283 283 283 283 282 282 282 281 281 280 280 279 279 278 279 279 280 281 281 282 282 282 283 283 284 284 284 285 284 284 285 285 286 286 287
268 269 270 271 272 272 272 272 273 273 274 275 276 277 279 281 282 282 283 283 283 283 283 284 284 285 285 285 285 285 284 284 285 285 285 284 284 283 283 283 283 283 283 283 284 284 283 283 283 284 284 284 283 283 282 282 282 281 281 280 280 279 279 279 279 280 280 281 281 281 282 282 282 283 284 284 285 285 285 285 285 285 286 286 287 287
268 268 269 270 270 270 271 272 273 274 274 276 277 279 279 280 281 281 281 281 281 281 282 283 283 284 284 284 284 284 283 283 283 283 283 282 281 281 281 282 282 282 282 282 282 282 282 282 282 282 283 282 282 282 281 281 281 281 280 280 280 279 279 280 280 281 282 282 282 282 282 283 283 284 284 284 285 285 284 284 285 285 285 286 286 287
267 267 268 269 269 270 272 273 274 275 275 276 278 279 280 280 281 281 281 281 281 281 281 281 281 282 282 282 282 283 282 282 282 282 281 281 281 281 281 281 282 282 281 281 281 280 280 280 281 282 282 282 282 282 281 281 281 281 280 280 280 280 280 281 281 282 282 283 283 283 283 283 284 284 284 284 284 284 283 284 284 285 285 286 286 286
267 268 269 270 270 271 272 274 275 275 276 277 278 279 280 280 280 280 281 281 281 280 281 281 281 282 282 283 283 283 283 282 282 282 282 283 283 283 283 283 283 283 282 281 280 280 281 281 282 283 283 283 283 282 282 282 281 281 281 281 281 281 282 282 283 283 284 284 284 284 284 284 284 284 284 284 284 284 284 284 284 285 285 286 286 286
271 272 273 272 272 271 272 273 274 276 278 279 279 279 279 279 280 280 280 280 280 281 282 282 283 283 283 283 283 283 283 283 283 283 283 283 283 283 283 283 283 282 281 281 281 282 283 283 284 284 283 283 283 283 283 283 283 283 283 283 283 284 284 284 285 285 285 286 286 286 285 285 285 285 284 284 284 284 284 285 285 285 286 286 286 286
Height
5761 5763 5765 5765 5765 5767 5769 5770 5771 5772 5772 5772 5773 5774 5775 5776 5777 5775 5772 5774 5774 5773 5776 5775 5773 5778 5783 5784 5783 5781 5778 5776 5778 5779 5778 5779 5780 5780 5781 5780 5780 5780 5779 5778 5777 5777 5777 5776 5775 5775 5774 5774 5773 5773 5772 5772 5771 5770 5769 5768 5768 5767 5767 5767 5766 5766 5765 5765 5764 5764 5763 5763 5762 5762 5761 5760 5759 5759 5758 5757 5756 5756 5755 5755 5754 5754
5759 5762 5763 5762 5764 5766 5767 5768 5768 5769 5770 5770 5771 5771 5772 5773 5774 5772 5770 5771 5771 5770 5773 5772 5770 5775 5780 5781 5780 5778 5775 5775 5775 5773 5773 5775 5776 5777 5777 5777 5777 5777 5776 5775 5775 5774 5774 5774 5773 5772 5771 5771 5770 5770 5769 5769 5768 5767 5767 5766 5765 5764 5764 5764 5763 5763 5762 5762 5762 5761 5760 5760 5759 5759 5758 5757 5757 5756 5755 5754 5753 5753 5752 5752 5751 5751
5758 5760 5760 5760 5762 5764 5764 5765 5766 5766 5767 5767 5768 5769 5770 5770 5769 5769 5768 5768 5768 5766 5769 5769 5767 5772 5777 5776 5776 5775 5773 5773 5771 5769 5769 5770 5773 5774 5773 5773 5774 5773 5773 5772 5772 5771 5771 5771 5770 5769 5768 5768 5767 5767 5767 5766 5765 5764 5764 5763 5762 5762 5762 5761 5761 5760 5760 5759 5759 5758 5757 5757 5756 5755 5755 5754 5753 5753 5752 5751 5750 5750 5749 5749 5748 5748
5756 5757 5757 5758 5760 5760 5761 5762 5763 5764 5764 5765 5765 5766 5767 5767 5765 5766 5766 5765 5765 5764 5765 5766 5763 5768 5773 5772 5772 5772 5770 5770 5767 5765 5765 5766 5770 5771 5770 5770 5771 5770 5770 5769 5769 5768 5768 5768 5767 5766 5765 5765 5764 5764 5763 5762 5762 5761 5761 5760 5759 5759 5759 5758 5758 5757 5757 5756 5756 5755 5754 5754 5753 5753 5752 5751 5750 5750 5749 5748 5747 5746 5746 5746 5745 5745
5755 5755 5755 5756 5757 5757 5758 5759 5760 5761 5761 5762 5762 5763 5764 5764 5762 5762 5763 5762 5762 5761 5762 5762 5759 5764 5769 5767 5769 5768 5766 5766 5764 5762 5762 5763 5767 5768 5767 5767 5768 5767 5767 5766 5766 5765 5764 5764 5763 5763 5762 5761 5761 5761 5760 5759 5759 5758 5758 5757 5756 5756 5755 5755 5755 5754 5754 5753 5753 5752 5751 5751 5750 5750 5749 5748 5747 5747 5746 5745 5744 5744 5743 5743 5743 5742
5752 5753 5753 5753 5754 5755 5756 5757 5757 5757 5758 5759 5760 5761 5761 5761 5759 5759 5759 5759 5759 5759 5760 5758 5754 5758 5764 5764 5765 5765 5763 5762 5760 5759 5760 5761 5763 5764 5764 5764 5764 5764 5764 5763 5763 5762 5761 5760 5760 5759 5759 5758 5758 5757 5757 5756 5756 5755 5754 5754 5753 5753 5752 5752 5751 5751 5750 5750 5749 5749 5748 5748 5747 5746 5745 5745 5744 5744 5743 5742 5741 5741 5741 5740 5740 5740
5750 5750 5750 5750 5751 5752 5753 5754 5754 5754 5755 5757 5758 5757 5757 5757 5757 5756 5756 5755 5756 5756 5758 5757 5751 5751 5758 5761 5761 5760 5759 5759 5757 5757 5758 5758 5760 5761 5760 5760 5761 5761 5761 5760 5759 5758 5757 5757 5756 5755 5755 5754 5754 5754 5753 5753 5752 5751 5751 5750 5750 5749 5749 5748 5748 5747 5747 5747 5746 5746 5745 5745 5744 5743 5742 5742 5741 5740 5740 5739 5739 5738 5738 5738 5737 5737
5747 5747 5747 5748 5749 5750 5751 5751 5751 5751 5752 5754 5755 5754 5753 5754 5753 5753 5752 5752 5752 5752 5755 5755 5750 5746 5752 5758 5758 5756 5756 5755 5754 5755 5755 5755 5756 5757 5756 5757 5757 5757 5757 5757 5756 5755 5754 5753 5752 5751 5751 5750 5750 5750 5749 5749 5748 5748 5747 5747 5746 5746 5745 5745 5744 5744 5744 5743 5743 5742 5742 5741 5741 5740 5739 5739 5738 5738 5737 5737 5736 5736 5735 5735 5735 5734
5744 5744 5745 5746 5746 5747 5748 5748 5748 5749 5749 5751 5752 5751 5750 5750 5750 5750 5749 5749 5748 5748 5752 5753 5748 5743 5747 5754 5755 5753 5753 5752 5752 5752 5752 5752 5753 5753 5753 5753 5753 5754 5754 5753 5752 5751 5750 5749 5748 5747 5747 5746 5746 5746 5745 5745 5744 5744 5743 5743 5743 5742 5742 5741 5741 5741 5740 5740 5739 5739 5739 5738 5737 5737 5736 5736 5735 5735 5734 5734 5733 5733 5733 5732 5732 5732
5741 5742 5742 5743 5744 5744 5745 5745 5746 5746 5747 5748 5749 5748 5748 5747 5747 5747 5746 5746 5745 5744 5749 5750 5745 5741 5743 5750 5752 5749 5750 5749 5748 5748 5748 5749 5749 5749 5749 5749 5750 5751 5750 5749 5748 5747 5746 5745 5744 5744 5743 5743 5742 5742 5741 5741 5740 5740 5739 5739 5739 5739 5738 5738 5738 5737 5737 5737 5736 5736 5736 5735 5734 5734 5734 5733 5732 5732 5731 5731 5731 5730 5730 5730 5729 5729
5739 5739 5740 5741 5742 5742 5742 5743 5744 5744 5745 5746 5745 5745 5745 5744 5744 5743 5743 5744 5741 5742 5745 5745 5743 5739 5741 5748 5749 5747 5746 5745 5744 5744 5744 5744 5745 5745 5746 5746 5747 5747 5746 5745 5744 5743 5742 5741 5740 5740 5739 5739 5739 5738 5738 5737 5736 5736 5736 5736 5736 5735 5735 5735 5735 5734 5734 5733 5733 5733 5732 5732 5732 5731 5731 5730 5729 5729 5729 5728 5728 5728 5727 5727 5727 5726
5737 5737 5738 5739 5740 5740 5740 5741 5742 5742 5742 5743 5742 5742 5742 5741 5740 5740 5741 5740 5738 5739 5741 5741 5740 5738 5740 5746 5747 5744 5743 5742 5741 5740 5740 5740 5741 5742 5742 5742 5743 5743 5742 5741 5740 5739 5738 5737 5737 5736 5736 5736 5735 5735 5734 5733 5733 5733 5733 5732 5732 5732 5732 5732 5731 5731 5731 5730 5730 5729 5729 5729 5729 5728 5728 5727 5727 5726 5726 5725 5725 5725 5725 5724 5724 5724
5735 5736 5737 5737 5738 5738 5738 5739 5739 5740 5740 5740 5740 5740 5739 5738 5737 5737 5738 5738 5736 5737 5738 5737 5736 5736 5740 5745 5745 5742 5740 5738 5737 5736 5736 5737 5738 5739 5738 5738 5738 5738 5738 5737 5735 5735 5734 5733 5733 5733 5733 5732 5732 5731 5730 5730 5730 5730 5730 5729 5729 5729 5729 5728 5728 5728 5727 5727 5726 5726 5726 5726 5725 5725 5725 5724 5724 5723 5723 5722 5722 5722 5722 5722 5722 5721
5734 5734 5734 5735 5735 5735 5736 5737 5737 5737 5738 5738 5738 5737 5736 5736 5734 5734 5735 5734 5734 5734 5734 5734 5733 5733 5739 5743 5743 5741 5738 5735 5733 5731 5731 5733 5735 5735 5734 5734 5734 5734 5733 5732 5731 5731 5730 5730 5730 5729 5729 5728 5728 5727 5727 5727 5727 5726 5726 5726 5726 5725 5725 5725 5725 5724 5724 5723 5723 5722 5723 5723 5722 5722 5722 5721 5721 5720 5720 5720 5720 5719 5719 5719 5719 5719
5731 5732 5732 5732 5733 5734 5734 5734 5735 5735 5735 5735 5735 5734 5734 5734 5731 5730 5731 5731 5731 5731 5731 5731 5731 5731 5736 5740 5740 5739 5737 5732 5729 5727 5728 5729 5731 5731 5729 5728 5728 5729 5728 5728 5727 5727 5726 5726 5726 5726 5725 5725 5724 5724 5724 5723 5723 5723 5722 5722 5722 5722 5722 5722 5721 5721 5720 5720 5719 5719 5719 5719 5719 5719 5719 5718 5718 5718 5717 5717 5717 5717 5717 5716 5716 5716
5729 5730 5730 5730 5731 5731 5731 5732 5732 5732 5732 5732 5732 5732 5731 5730 5728 5727 5727 5727 5727 5726 5727 5728 5729 5729 5732 5736 5737 5736 5734 5730 5726 5725 5726 5726 5726 5726 5725 5724 5723 5723 5724 5723 5723 5722 5722 5722 5722 5722 5722 5721 5721 5720 5720 5720 5719 5719 5719 5718 5718 5718 5718 5718 5717 5717 5717 5716 5716 5716 5716 5716 5716 5716 5715 5715 5715 5715 5715 5715 5715 5714 5714 5713 5713 5713
5728 5728 5728 5729 5729 5729 5729 5730 5730 5729 5729 5729 5729 5729 5728 5727 5726 5725 5724 5724 5723 5721 5723 5725 5726 5727 5730 5733 5734 5732 5729 5726 5723 5723 5724 5723 5722 5722 5721 5721 5720 5719 5719 5719 5718 5718 5717 5717 5717 5718 5718 5718 5717 5717 5717 5717 5716 5715 5715 5715 5715 5714 5714 5714 5713 5713 5713 5713 5713 5712 5712 5712 5712 5712 5712 5711 5711 5711 5711 5712 5711 5711 5711 5710 5710 5710
5726 5726 5727 5727 5727 5727 5727 5727 5727 5727 5727 5727 5727 5726 5725 5724 5724 5723 5721 5721 5720 5718 5718 5720 5722 5725 5728 5731 5731 5728 5724 5721 5720 5721 5721 5719 5719 5719 5719 5718 5717 5716 5715 5715 5714 5714 5713 5713 5714 5714 5715 5715 5714 5714 5714 5713 5713 5712 5712 5711 5711 5710 5710 5710 5709 5709 5709 5709 5709 5708 5708 5708 5708 5708 5708 5707 5707 5707 5708 5708 5707 5707 5707 5706 5706 5706
5723 5724 5724 5725 5725 5725 5725 5725 5725 5725 5724 5724 5724 5723 5723 5722 5721 5720 5718 5718 5717 5714 5713 5715 5718 5723 5727 5728 5727 5724 5719 5717 5717 5717 5717 5716 5716 5716 5716 5715 5713 5712 5711 5710 5710 5709 5710 5710 5711 5712 5712 5712 5712 5711 5711 5710 5709 5709 5708 5707 5707 5706 5706 5705 5705 5705 5705 5705 5704 5704 5704 5703 5703 5703 5703 5703 5703 5703 5704 5703 5703 5703 5702 5702 5701 5701
5721 5721 5722 5723 5722 5722 5722 5722 5722 5722 5722 5722 5722 5721 5720 5719 5718 5717 5715 5715 5714 5711 5710 5710 5714 5721 5725 5723 5721 5718 5715 5714 5716 5716 5715 5714 5713 5712 5712 5710 5709 5708 5707 5706 5705 5705 5706 5706 5708 5709 5709 5709 5709 5708 5707 5706 5705 5704 5704 5703 5703 5702 5702 5702 5701 5701 5700 5700 5700 5699 5699 5699 5699 5699 5699 5699 5699 5699 5699 5698 5698 5698 5697 5697 5697 5696
5718 5719 5719 5720 5720 5720 5720 5720 5719 5719 5719 5719 5719 5718 5717 5716 5714 5713 5712 5712 5711 5709 5708 5707 5710 5718 5722 5718 5714 5713 5713 5713 5713 5714 5713 5712 5710 5708 5707 5705 5705 5704 5703 5702 5702 5701 5701 5702 5703 5705 5706 5705 5705 5704 5703 5702 5701 5700 5699 5698 5697 5697 5698 5697 5697 5696 5695 5695 5695 5695 5695 5695 5694 5694 5694 5694 5695 5695 5695 5694 5693 5693 5692 5692 5692 5691
5716 5716 5716 5717 5718 5717 5717 5717 5716 5716 5716 5716 5715 5715 5714 5712 5710 5709 5708 5709 5708 5707 5707 5706 5707 5715 5718 5714 5711 5711 5712 5712 5711 5711 5710 5709 5706 5704 5702 5701 5699 5699 5699 5698 5698 5697 5697 5697 5698 5700 5701 5700 5700 5699 5698 5698 5697 5697 5696 5695 5693 5692 5692 5692 5692 5691 5691 5690 5691 5691 5691 5690 5690 5690 5690 5690 5690 5690 5690 5689 5688 5687 5687 5687 5687 5687
5712 5712 5713 5715 5715 5714 5714 5714 5713 5713 5713 5712 5711 5712 5711 5708 5707 5705 5704 5705 5705 5704 5705 5705 5706 5713 5715 5710 5709 5710 5710 5710 5708 5707 5706 5704 5702 5700 5698 5696 5694 5694 5695 5694 5693 5692 5692 5693 5694 5695 5696 5695 5695 5695 5694 5693 5693 5692 5692 5691 5690 5688 5687 5686 5686 5686 5686 5686 5686 5686 5686 5686 5686 5685 5685 5685 5685 5685 5685 5684 5683 5682 5683 5683 5682 5682
5708 5708 5710 5711 5711 5711 5711 5711 5710 5710 5708 5708 5708 5708 5706 5705 5704 5701 5700 5701 5699 5701 5705 5702 5701 5710 5714 5709 5705 5706 5707 5707 5705 5703 5701 5699 5698 5696 5693 5692 5690 5690 5689 5688 5688 5688 5688 5689 5689 5690 5690 5689 5689 5689 5688 5688 5688 5688 5687 5686 5685 5684 5682 5681 5681 5681 5681 5681 5681 5681 5681 5681 5681 5681 5681 5681 5680 5680 5679 5678 5678 5678 5678 5678 5677 5677
5704 5705 5706 5707 5707 5707 5707 5708 5707 5706 5704 5703 5704 5704 5702 5701 5700 5698 5697 5696 5694 5699 5703 5695 5690 5703 5712 5708 5703 5703 5702 5702 5701 5697 5694 5692 5692 5691 5690 5689 5688 5686 5684 5683 5683 5684 5684 5685 5685 5685 5684 5684 5683 5683 5683 5682 5682 5682 5681 5681 5680 5679 5677 5676 5676 5676 5676 5677 5677 5677 5677 5677 5676 5676 5676 5676 5675 5675 5674 5673 5673 5673 5673 5672 5672 5671
5701 5701 5702 5703 5703 5704 5705 5705 5703 5701 5701 5700 5700 5700 5698 5697 5696 5694 5693 5691 5692 5696 5696 5689 5687 5695 5703 5703 5702 5701 5698 5695 5693 5690 5687 5686 5686 5686 5687 5685 5683 5681 5680 5680 5680 5679 5679 5679 5680 5680 5679 5679 5678 5678 5677 5677 5676 5676 5676 5675 5674 5673 5672 5672 5672 5672 5672 5672 5672 5672 5672 5671 5671 5671 5670 5670 5669 5669 5668 5668 5667 5667 5667 5666 5665 5665
5696 5698 5699 5699 5698 5700 5701 5700 5698 5697 5697 5696 5696 5696 5695 5693 5692 5690 5688 5689 5692 5689 5685 5687 5690 5688 5691 5697 5699 5698 5694 5689 5686 5684 5682 5681 5681 5681 5681 5679 5678 5678 5677 5677 5676 5675 5674 5674 5674 5674 5674 5673 5673 5673 5672 5672 5671 5670 5670 5669 5668 5667 5667 5666 5666 5667 5667 5667 5667 5667 5666 5666 5665 5665 5664 5664 5663 5662 5662 5661 5661 5660 5660 5659 5658 5658
5692 5694 5695 5694 5694 5696 5697 5695 5693 5693 5692 5692 5692 5692 5691 5690 5687 5686 5687 5688 5688 5681 5677 5686 5688 5680 5682 5692 5693 5690 5687 5683 5680 5679 5678 5677 5676 5675 5674 5674 5674 5674 5673 5672 5672 5671 5670 5670 5670 5669 5668 5668 5668 5667 5667 5666 5666 5665 5664 5664 5663 5661 5661 5661 5660 5661 5661 5661 5661 5660 5660 5659 5658 5658 5657 5657 5657 5656 5656 5655 5654 5654 5653 5652 5652 5651
5687 5689 5692 5690 5689 5691 5692 5691 5688 5687 5687 5686 5686 5687 5686 5685 5684 5684 5685 5685 5683 5676 5674 5681 5682 5675 5678 5686 5685 5682 5679 5677 5676 5676 5674 5673 5672 5670 5670 5670 5671 5670 5669 5669 5667 5666 5665 5665 5665 5664 5663 5663 5662 5662 5662 5661 5661 5660 5660 5659 5658 5656 5655 5655 5655 5655 5655 5655 5655 5654 5653 5652 5652 5652 5651 5651 5650 5650 5649 5648 5647 5646 5646 5645 5645 5644
5682 5685 5688 5686 5684 5687 5688 5686 5684 5682 5680 5680 5681 5681 5681 5682 5682 5681 5680 5680 5678 5673 5673 5676 5673 5672 5678 5681 5678 5676 5675 5673 5672 5671 5670 5669 5668 5666 5666 5666 5667 5666 5666 5665 5663 5662 5661 5660 5660 5659 5659 5658 5657 5657 5657 5656 5656 5655 5655 5654 5653 5651 5650 5649 5650 5650 5649 5649 5649 5648 5647 5646 5646 5645 5644 5644 5643 5642 5641 5640 5640 5639 5638 5638 5637 5636
5677 5679 5681 5680 5678 5680 5684 5682 5678 5676 5673 5671 5672 5675 5679 5680 5678 5675 5675 5676 5674 5670 5671 5671 5666 5668 5677 5677 5671 5671 5672 5669 5666 5665 5665 5665 5664 5663 5663 5662 5661 5661 5661 5660 5658 5657 5656 5655 5655 5654 5653 5653 5652 5652 5651 5651 5650 5650 5649 5648 5647 5645 5644 5644 5644 5643 5643 5642 5641 5640 5639 5639 5638 5637 5637 5636 5635 5634 5633 5632 5632 5631 5630 5630 5629 5627
5674 5672 5675 5675 5669 5672 5679 5677 5671 5670 5665 5659 5663 5672 5678 5676 5672 5671 5671 5672 5670 5667 5666 5664 5662 5665 5672 5671 5667 5666 5665 5662 5661 5661 5661 5660 5659 5658 5658 5657 5656 5655 5655 5654 5653 5652 5651 5651 5650 5649 5648 5648 5647 5646 5645 5645 5644 5644 5643 5642 5641 5640 5639 5638 5638 5637 5636 5635 5634 5633 5632 5631 5630 5630 5629 5628 5627 5626 5625 5624 5624 5623 5622 5621 5619 5618
5670 5668 5669 5669 5662 5664 5672 5670 5667 5664 5652 5647 5659 5671 5672 5669 5668 5667 5667 5667 5667 5665 5661 5659 5660 5661 5664 5664 5662 5660 5657 5656 5656 5656 5656 5655 5654 5653 5653 5651 5651 5651 5650 5648 5647 5647 5646 5645 5644 5644 5643 5642 5641 5640 5640 5639 5638 5637 5636 5636 5635 5634 5633 5632 5631 5630 5629 5628 5627 5627 5625 5624 5623 5622 5621 5620 5619 5618 5617 5616 5615 5614 5612 5611 5610 5608
5666 5665 5664 5662 5657 5657 5662 5665 5661 5652 5641 5645 5660 5666 5665 5665 5665 5663 5661 5662 5663 5662 5658 5656 5656 5657 5658 5657 5654 5653 5653 5653 5653 5652 5651 5650 5649 5648 5646 5645 5645 5645 5644 5643 5642 5642 5641 5640 5639 5638 5637 5636 5636 5635 5634 5633 5633 5631 5630 5629 5629 5628 5627 5625 5625 5624 5622 5622 5621 5620 5618 5616 5615 5614 5613 5612 5611 5610 5609 5607 5606 5605 5603 5602 5600 5599
5661 5661 5659 5657 5654 5650 5653 5658 5652 5640 5638 5647 5653 5655 5659 5663 5661 5658 5656 5657 5660 5659 5655 5653 5653 5652 5651 5650 5649 5650 5650 5649 5648 5648 5648 5645 5644 5641 5639 5639 5640 5639 5638 5638 5637 5636 5635 5635 5634 5633 5632 5631 5631 5630 5629 5628 5627 5625 5624 5623 5622 5621 5620 5619 5618 5617 5616 5615 5614 5612 5610 5609 5608 5607 5606 5605 5604 5602 5601 5599 5598 5596 5595 5594 5593 5591
5656 5656 5653 5652 5650 5645 5645 5647 5642 5635 5637 5641 5641 5645 5654 5658 5657 5653 5650 5652 5656 5655 5653 5650 5648 5646 5645 5645 5646 5646 5644 5643 5643 5643 5642 5639 5636 5634 5633 5633 5633 5632 5632 5631 5631 5630 5629 5628 5628 5627 5626 5625 5625 5624 5623 5621 5620 5619 5617 5616 5615 5614 5612 5612 5611 5609 5608 5607 5605 5604 5602 5601 5601 5600 5599 5597 5596 5595 5593 5591 5590 5588 5586 5586 5584 5582
5650 5650 5648 5646 5644 5641 5638 5636 5633 5630 5629 5632 5636 5642 5646 5648 5649 5648 5645 5647 5650 5652 5652 5647 5641 5639 5641 5642 5640 5639 5638 5638 5638 5637 5635 5632 5628 5626 5626 5625 5625 5625 5625 5624 5623 5622 5621 5621 5620 5619 5619 5618 5617 5616 5615 5614 5612 5611 5610 5608 5607 5606 5605 5604 5603 5601 5600 5598 5596 5595 5594 5593 5593 5592 5590 5589 5587 5586 5584 5582 5581 5579 5577 5576 5575 5573
5645 5644 5644 5640 5636 5635 5633 5629 5627 5623 5619 5623 5632 5637 5638 5639 5640 5639 5638 5639 5644 5647 5647 5642 5637 5637 5637 5635 5633 5633 5632 5632 5632 5631 5627 5624 5621 5620 5619 5618 5617 5617 5617 5616 5616 5615 5613 5612 5612 5611 5610 5610 5608 5607 5607 5606 5604 5603 5601 5600 5599 5598 5596 5595 5594 5592 5591 5589 5587 5586 5586 5585 5584 5582 5580 5579 5577 5575 5573 5572 5570 5568 5566 5565 5564 5562
5639 5637 5637 5634 5630 5628 5627 5625 5621 5617 5613 5616 5622 5626 5628 5630 5632 5631 5628 5631 5638 5639 5636 5634 5635 5634 5631 5629 5628 5628 5627 5626 5627 5624 5620 5617 5615 5614 5614 5613 5612 5610 5609 5608 5607 5607 5606 5604 5603 5602 5601 5601 5600 5599 5598 5597 5595 5593 5592 5591 5590 5589 5587 5586 5585 5583 5581 5579 5577 5576 5576 5575 5573 5571 5569 5568 5566 5564 5562 5561 5558 5557 5555 5553 5551 5549
5632 5630 5629 5626 5624 5623 5622 5618 5614 5610 5611 5613 5615 5617 5618 5619 5621 5620 5618 5622 5629 5627 5624 5626 5627 5625 5624 5624 5624 5624 5622 5620 5620 5618 5613 5611 5610 5608 5608 5608 5607 5605 5603 5600 5599 5599 5598 5596 5595 5594 5592 5591 5591 5590 5589 5588 5586 5584 5583 5581 5580 5579 5578 5576 5575 5573 5571 5569 5567 5566 5565 5563 5561 5560 5558 5557 5555 5554 5552 5550 5547 5545 5544 5542 5540 5538
5624 5623 5621 5619 5618 5617 5614 5612 5608 5604 5605 5609 5611 5612 5611 5611 5610 5607 5608 5613 5615 5613 5613 5616 5616 5615 5616 5616 5615 5615 5615 5612 5611 5610 5607 5605 5604 5603 5602 5601 5601 5599 5597 5594 5593 5592 5590 5589 5587 5586 5584 5582 5581 5580 5579 5578 5576 5575 5573 5571 5570 5568 5567 5565 5563 5561 5559 5557 5556 5554 5552 5551 5549 5548 5546 5545 5544 5542 5541 5539 5536 5534 5532 5530 5528 5526
5615 5615 5613 5612 5610 5608 5608 5608 5603 5597 5597 5604 5610 5610 5606 5603 5601 5601 5602 5605 5603 5601 5603 5603 5604 5605 5605 5602 5602 5603 5603 5603 5602 5602 5600 5598 5597 5596 5594 5593 5592 5591 5589 5586 5585 5584 5582 5580 5579 5577 5576 5573 5571 5569 5568 5566 5565 5564 5562 5561 5559 5557 5555 5553 5551 5549 5547 5545 5543 5541 5540 5538 5536 5534 5533 5531 5530 5529 5528 5526 5523 5521 5519 5517 5515 5514
5605 5603 5601 5602 5602 5602 5602 5599 5593 5590 5593 5599 5602 5600 5597 5595 5597 5597 5597 5596 5594 5593 5593 5592 5593 5594 5590 5588 5589 5588 5589 5591 5590 5590 5590 5589 5588 5586 5584 5584 5582 5581 5579 5577 5575 5574 5572 5570 5568 5567 5565 5563 5561 5559 5558 5556 5554 5553 5552 5550 5548 5546 5544 5542 5540 5537 5535 5533 5531 5529 5528 5526 5524 5522 5520 5518 5517 5516 5514 5512 5510 5508 5506 5504 5502 5500
5593 5591 5591 5594 5596 5594 5590 5586 5585 5588 5590 5588 5586 5587 5588 5590 5591 5590 5588 5588 5588 5587 5586 5584 5584 5582 5577 5576 5577 5577 5577 5578 5577 5576 5577 5576 5575 5574 5573 5573 5572 5569 5568 5566 5564 5563 5561 5558 5557 5556 5554 5553 5551 5549 5547 5546 5543 5542 5541 5539 5537 5535 5533 5531 5528 5526 5524 5521 5519 5518 5516 5514 5512 5509 5508 5506 5504 5503 5501 5498 5497 5495 5492 5491 5489 5487
5583 5585 5585 5584 5582 5580 5578 5578 5580 5582 5580 5576 5577 5580 5580 5580 5581 5580 5579 5582 5582 5579 5577 5575 5573 5572 5569 5567 5568 5568 5568 5567 5566 5564 5563 5562 5561 5560 5559 5558 5558 5556 5555 5554 5551 5550 5549 5547 5545 5544 5542 5541 5540 5538 5536 5534 5532 5530 5529 5527 5525 5523 5521 5519 5517 5514 5512 5510 5507 5505 5503 5501 5499 5497 5495 5493 5491 5489 5487 5485 5483 5482 5479 5477 5476 5474
5577 5578 5574 5570 5569 5568 5568 5570 5572 5571 5570 5569 5570 5571 5570 5569 5572 5572 5570 5571 5572 5568 5566 5564 5563 5563 5561 5558 5558 5559 5558 5557 5556 5554 5552 5551 5549 5547 5546 5544 5544 5542 5541 5540 5538 5537 5536 5534 5533 5532 5530 5529 5528 5526 5524 5522 5520 5518 5516 5514 5513 5510 5508 5507 5505 5502 5501 5498 5496 5493 5491 5488 5486 5484 5482 5480 5478 5476 5474 5471 5469 5467 5465 5463 5461 5459
5570 5568 5562 5561 5560 5554 5553 5561 5563 5560 5561 5561 5559 5562 5564 5563 5563 5563 5560 5560 5561 5557 5554 5553 5552 5551 5550 5548 5547 5548 5548 5547 5545 5542 5542 5540 5537 5536 5534 5532 5531 5530 5529 5527 5526 5525 5523 5522 5520 5519 5518 5516 5515 5513 5511 5510 5508 5506 5504 5502 5500 5498 5496 5494 5492 5490 5488 5486 5484 5481 5479 5476 5474 5471 5469 5467 5464 5462 5459 5457 5455 5453 5451 5449 5447 5445
5562 5558 5552 5552 5550 5541 5539 5550 5554 5548 5549 5552 5550 5552 5555 5553 5551 5552 5550 5549 5548 5546 5544 5543 5542 5540 5539 5537 5536 5535 5535 5536 5534 5530 5529 5528 5526 5525 5524 5522 5521 5520 5518 5516 5515 5513 5511 5510 5508 5507 5506 5504 5503 5501 5499 5497 5495 5493 5491 5489 5487 5485 5483 5481 5480 5477 5475 5473 5471 5468 5466 5464 5461 5459 5456 5454 5451 5449 5446 5444 5442 5439 5437 5435 5433 5431
5550 5546 5545 5543 5538 5532 5531 5538 5540 5536 5538 5543 5543 5540 5541 5542 5540 5538 5538 5537 5536 5535 5534 5533 5531 5529 5528 5526 5525 5523 5523 5524 5522 5518 5516 5516 5515 5513 5512 5510 5509 5507 5506 5504 5503 5501 5500 5498 5496 5495 5493 5491 5490 5488 5486 5485 5483 5481 5479 5477 5475 5473 5471 5469 5467 5465 5462 5460 5457 5455 5453 5451 5448 5446 5443 5441 5438 5436 5433 5431 5428 5426 5423 5421 5419 5417
5538 5537 5540 5534 5527 5527 5527 5525 5526 5524 5526 5533 5534 5528 5527 5530 5528 5525 5526 5525 5524 5523 5522 5521 5520 5519 5516 5514 5514 5512 5510 5510 5509 5506 5504 5503 5502 5500 5499 5497 5495 5494 5492 5491 5489 5488 5487 5485 5483 5482 5480 5478 5477 5475 5473 5471 5470 5468 5466 5464 5462 5460 5458 5455 5453 5451 5448 5446 5444 5441 5439 5437 5434 5432 5430 5427 5424 5422 5420 5417 5415 5412 5409 5406 5404 5403
5531 5531 5534 5525 5516 5517 5519 5516 5515 5515 5517 5521 5520 5515 5514 5518 5516 5513 5513 5512 5510 5511 5510 5508 5508 5507 5504 5501 5500 5499 5497 5496 5495 5493 5491 5490 5489 5488 5486 5484 5483 5481 5479 5478 5476 5475 5473 5471 5470 5468 5466 5464 5463 5461 5459 5458 5456 5454 5452 5450 5448 5446 5444 5441 5439 5436 5434 5432 5429 5427 5425 5422 5420 5418 5415 5412 5410 5408 5405 5403 5401 5398 5396 5392 5389 5387